Погода в Казинке

Россия / Липецкая область     52°32′18″N   39°49′26″E
темп.,
°C
ветер,
м/с
пор.,
м/с
влажн.,
%
обл.,
%
осадки,
мм/ч
давл.,
гПа
погр.,
м
13 апреля, вт
вт1300:00+12вюв4146491 0.0 1026271
03:00+11вюв4136881 0.0 1026279
06:00+9вюв4106496 0.0 1026196
09:00+15юв594655 0.0 1026381
12:00+20юв6113034 0.0 10251361
15:00+22юв8122411 0.0 10242094
18:00+19юв6113118 0.0 1023617
21:00+15юв615455 0.0 1024411
14 апреля, ср
ср1400:00+13юв5145296 0.0 1023336
03:00+10юв31161100 0.0 1023222
06:00+9вюв3867100 0.0 1022165
09:00+14юв5848100 0.0 1021377
12:00+18юв683384 0.0 10201068
15:00+20ююв68245 0.0 10182145
18:00+18юв483398 0.0 1017387
21:00+14вюв5134699 0.0 1018326
15 апреля, чт
чт1500:00+12юв3857100 0.0 1017152
03:00+11вюв235996 0.0 101654
06:00+11в0164100 0.0 101611
09:00+14вюв125586 0.0 1016292
12:00+19всв353753 0.0 10141517
15:00+18юв1145100 0.1 1014161
18:00+15зсз245996 0.2 1014129
21:00+13св22627 0.2 101421
16 апреля, пт
пт1600:00+11всв227146 0.0 101429
03:00+11сз117364 0.0 101410
06:00+10ю11738 0.0 101411
09:00+13зюз1164100 0.0 1015212
12:00+16юв345479 0.0 1016651
15:00+18ююв354386 0.0 10151785
18:00+13ю5777100 2.3 1016402
21:00+12в118099 6.8 101720
17 апреля, сб
сб1700:00+10з0083100 0.1 101710
03:00+10св3689100 0.1 1017106
06:00+10св4888100 0.0 1016191
09:00+13всв51163100 0.0 1016490
12:00+18вюв7104688 0.0 10171471
15:00+17юв6953100 0.7 10181497
18:00+13ююз4574100 0.9 1019439
21:00+11сз238753 2.3 1020141